| time (UTC) | temp F | wind direction | speed knots | gust knots | rain 1hr in | rain 24hr in | rain mn in | humidity % | barometer mb |
| 20260509065256 | 71 | 293 | 0.0 | 2.6 | 0.00 | 0.07 | 0.00 | 86 | 1011.8 |
| 20260509064755 | 71 | 117 | 0.0 | 3.5 | 0.00 | 0.07 | 0.00 | 86 | 1011.6 |
| 20260509064254 | 71 | 349 | 0.0 | 3.5 | 0.00 | 0.07 | 0.00 | 87 | 1011.6 |
| 20260509063722 | 70 | 129 | 0.0 | 0.9 | 0.00 | 0.07 | 0.00 | 87 | 1011.3 |
| 20260509063225 | 70 | 156 | 0.0 | 1.7 | 0.00 | 0.07 | 0.00 | 87 | 1011.3 |
| 20260509062725 | 70 | 113 | 0.0 | 1.7 | 0.00 | 0.07 | 0.00 | 87 | 1011.3 |
| 20260509062225 | 70 | 202 | 0.0 | 0.9 | 0.00 | 0.07 | 0.00 | 87 | 1011.6 |
| 20260509061725 | 70 | 66 | 0.0 | 1.7 | 0.00 | 0.07 | 0.00 | 87 | 1011.7 |
| 20260509061224 | 70 | 129 | 0.0 | 1.7 | 0.00 | 0.07 | 0.00 | 87 | 1011.4 |
| 20260509060653 | 70 | 137 | 0.9 | 1.7 | 0.00 | 0.07 | 0.00 | 87 | 1011.6 |
| 20260509060153 | 70 | 137 | 0.9 | 1.7 | 0.00 | 0.07 | 0.00 | 86 | 1011.6 |
| 20260509055654 | 70 | 113 | 0.9 | 1.7 | 0.00 | 0.07 | 0.00 | 85 | 1011.7 |
| 20260509055154 | 71 | 173 | 0.0 | 0.9 | 0.00 | 0.07 | 0.00 | 84 | 1012.1 |
| 20260509054654 | 71 | 135 | 0.0 | 0.0 | 0.00 | 0.07 | 0.00 | 84 | 1012.1 |
| 20260509054153 | 71 | 202 | 0.0 | 0.0 | 0.00 | 0.07 | 0.00 | 83 | 1012.0 |
| 20260509053123 | 71 | 322 | 0.0 | 0.9 | 0.00 | 0.07 | 0.00 | 82 | 1012.2 |
| 20260509052123 | 72 | 315 | 0.0 | 3.5 | 0.00 | 0.07 | 0.00 | 82 | 1012.3 |
| 20260509051122 | 71 | 283 | 1.7 | 2.6 | 0.00 | 0.07 | 0.00 | 82 | 1013.1 |
| 20260509050622 | 71 | 49 | 0.0 | 1.7 | 0.00 | 0.07 | 0.00 | 83 | 1012.7 |
| 20260509050052 | 71 | 55 | 0.9 | 1.7 | 0.00 | 0.07 | 0.00 | 83 | 1012.1 |
| 20260509045052 | 71 | 135 | 0.0 | 1.7 | 0.00 | 0.07 | 0.07 | 83 | 1011.4 |
| 20260509044551 | 71 | 143 | 0.0 | 1.7 | 0.00 | 0.07 | 0.07 | 83 | 1011.3 |
| 20260509044051 | 71 | 204 | 0.9 | 2.6 | 0.00 | 0.07 | 0.07 | 82 | 1011.5 |
| 20260509043551 | 71 | 148 | 0.0 | 2.6 | 0.00 | 0.07 | 0.07 | 83 | 1011.2 |
| 20260509043021 | 71 | 120 | 0.9 | 1.7 | 0.00 | 0.07 | 0.07 | 83 | 1010.9 |
| 20260509042520 | 71 | 134 | 0.9 | 1.7 | 0.00 | 0.07 | 0.07 | 82 | 1011.2 |
| 20260509042021 | 71 | 139 | 0.9 | 3.5 | 0.00 | 0.07 | 0.07 | 82 | 1011.3 |
| 20260509041521 | 71 | 131 | 0.0 | 3.5 | 0.00 | 0.07 | 0.07 | 81 | 1011.3 |
| 20260509041021 | 72 | 243 | 0.0 | 3.5 | 0.00 | 0.07 | 0.07 | 80 | 1011.1 |
| 20260509040520 | 72 | 113 | 1.7 | 4.3 | 0.00 | 0.07 | 0.07 | 80 | 1011.1 |
| 20260509035950 | 72 | 158 | 1.7 | 4.3 | 0.00 | 0.07 | 0.07 | 80 | 1011.6 |
| 20260509035450 | 72 | 145 | 1.7 | 3.5 | 0.00 | 0.07 | 0.07 | 80 | 1011.7 |
| 20260509034949 | 72 | 185 | 1.7 | 3.5 | 0.00 | 0.07 | 0.07 | 79 | 1011.9 |
| 20260509034450 | 73 | 242 | 0.0 | 1.7 | 0.00 | 0.07 | 0.07 | 79 | 1012.4 |
| 20260509033949 | 73 | 135 | 0.0 | 1.7 | 0.00 | 0.07 | 0.07 | 79 | 1012.6 |
| 20260509033449 | 73 | 195 | 0.0 | 1.7 | 0.00 | 0.07 | 0.07 | 78 | 1012.4 |
| 20260509032949 | 73 | 195 | 0.0 | 1.7 | 0.00 | 0.07 | 0.07 | 78 | 1012.1 |
| 20260509032418 | 73 | 145 | 0.0 | 2.6 | 0.00 | 0.07 | 0.07 | 78 | 1011.9 |
| 20260509031919 | 72 | 197 | 1.7 | 2.6 | 0.00 | 0.07 | 0.07 | 78 | 1011.7 |
| 20260509031419 | 73 | 218 | 0.0 | 1.7 | 0.00 | 0.07 | 0.07 | 79 | 1011.7 |
| 20260509030919 | 73 | 167 | 0.9 | 2.6 | 0.00 | 0.07 | 0.07 | 78 | 1011.7 |
| 20260509030418 | 73 | 175 | 0.9 | 2.6 | 0.00 | 0.07 | 0.07 | 78 | 1011.9 |
| 20260509025348 | 73 | 217 | 0.0 | 1.7 | 0.00 | 0.07 | 0.07 | 77 | 1011.6 |
| 20260509024848 | 73 | 179 | 0.9 | 2.6 | 0.00 | 0.07 | 0.07 | 78 | 1011.4 |
| 20260509024348 | 73 | 227 | 0.9 | 3.5 | 0.00 | 0.07 | 0.07 | 77 | 1011.2 |
| 20260509023848 | 73 | 133 | 0.0 | 3.5 | 0.00 | 0.07 | 0.07 | 77 | 1011.1 |
| 20260509022848 | 73 | 89 | 0.0 | 2.6 | 0.00 | 0.07 | 0.07 | 78 | 1010.6 |
| 20260509022317 | 73 | 144 | 1.7 | 3.5 | 0.00 | 0.07 | 0.07 | 77 | 1010.4 |
| 20260509021817 | 73 | 137 | 2.6 | 3.5 | 0.00 | 0.07 | 0.07 | 77 | 1010.2 |
| 20260509021316 | 73 | 169 | 0.9 | 3.5 | 0.00 | 0.07 | 0.07 | 77 | 1010.3 |
| 20260509020817 | 73 | 162 | 0.9 | 3.5 | 0.00 | 0.07 | 0.07 | 77 | 1010.6 |
| 20260509020316 | 73 | 117 | 0.9 | 3.5 | 0.00 | 0.07 | 0.07 | 77 | 1010.3 |
| 20260509015816 | 73 | 115 | 0.0 | 3.5 | 0.00 | 0.07 | 0.07 | 77 | 1010.4 |
| 20260509015246 | 73 | 127 | 2.6 | 2.6 | 0.00 | 0.07 | 0.07 | 77 | 1010.3 |
| 20260509014746 | 73 | 131 | 0.0 | 1.7 | 0.00 | 0.07 | 0.07 | 76 | 1010.4 |
| 20260509014246 | 73 | 128 | 0.0 | 1.7 | 0.00 | 0.07 | 0.07 | 76 | 1010.2 |
| 20260509013746 | 73 | 183 | 0.0 | 1.7 | 0.00 | 0.07 | 0.07 | 76 | 1010.2 |
| 20260509012746 | 73 | 116 | 0.0 | 1.7 | 0.00 | 0.07 | 0.07 | 75 | 1010.3 |
| 20260509012216 | 73 | 89 | 0.0 | 2.6 | 0.00 | 0.07 | 0.07 | 75 | 1010.3 |
| 20260509011716 | 73 | 144 | 0.9 | 2.6 | 0.00 | 0.07 | 0.07 | 74 | 1010.2 |
| 20260509011214 | 73 | 189 | 1.7 | 3.5 | 0.00 | 0.07 | 0.07 | 74 | 1010.2 |
| 20260509010715 | 74 | 161 | 0.9 | 3.5 | 0.00 | 0.07 | 0.07 | 73 | 1010.1 |
| 20260509010214 | 74 | 165 | 0.9 | 2.6 | 0.00 | 0.07 | 0.07 | 73 | 1010.2 |
| 20260509005215 | 74 | 107 | 0.9 | 2.6 | 0.00 | 0.07 | 0.07 | 72 | 1009.7 |
| 20260509004644 | 74 | 283 | 0.0 | 3.5 | 0.00 | 0.07 | 0.07 | 72 | 1009.9 |
| 20260509004143 | 74 | 128 | 0.9 | 3.5 | 0.00 | 0.07 | 0.07 | 72 | 1009.7 |
| 20260509003643 | 74 | 215 | 1.7 | 2.6 | 0.00 | 0.07 | 0.07 | 71 | 1009.6 |
| 20260509003143 | 74 | 102 | 1.7 | 3.5 | 0.00 | 0.07 | 0.07 | 71 | 1009.5 |
| 20260509002643 | 75 | 135 | 1.7 | 3.5 | 0.00 | 0.07 | 0.07 | 71 | 1009.6 |
| 20260509002143 | 75 | 100 | 0.0 | 3.5 | 0.00 | 0.07 | 0.07 | 70 | 1009.7 |
| 20260509001113 | 75 | 215 | 1.7 | 5.2 | 0.00 | 0.07 | 0.07 | 69 | 1009.6 |
| 20260509000613 | 75 | 125 | 1.7 | 3.5 | 0.00 | 0.07 | 0.07 | 69 | 1009.7 |
| 20260509000113 | 75 | 115 | 1.7 | 7.8 | 0.00 | 0.07 | 0.07 | 70 | 1009.7 |
| 20260508235613 | 75 | 164 | 0.9 | 7.8 | 0.00 | 0.07 | 0.07 | 70 | 1009.8 |
| 20260508235113 | 76 | 239 | 0.0 | 1.7 | 0.00 | 0.07 | 0.07 | 68 | 1009.8 |
| 20260508234543 | 76 | 239 | 0.0 | 5.2 | 0.00 | 0.07 | 0.07 | 68 | 1010.1 |
| 20260508233542 | 76 | 123 | 1.7 | 5.2 | 0.00 | 0.07 | 0.07 | 68 | 1009.9 |
| 20260508233041 | 76 | 141 | 3.5 | 4.3 | 0.00 | 0.07 | 0.07 | 67 | 1010.0 |
| 20260508232541 | 77 | 158 | 0.9 | 4.3 | 0.00 | 0.07 | 0.07 | 66 | 1010.0 |
| 20260508232041 | 76 | 168 | 0.9 | 4.3 | 0.00 | 0.07 | 0.07 | 67 | 1010.2 |
| 20260508231511 | 77 | 169 | 2.6 | 2.6 | 0.00 | 0.07 | 0.07 | 67 | 1010.1 |
| 20260508231010 | 77 | 89 | 0.9 | 3.5 | 0.00 | 0.07 | 0.07 | 66 | 1010.1 |
| 20260508230510 | 77 | 4 | 1.7 | 3.5 | 0.00 | 0.07 | 0.07 | 66 | 1010.0 |
| 20260508230010 | 78 | 85 | 0.0 | 2.6 | 0.00 | 0.07 | 0.07 | 65 | 1010.3 |
| 20260508225510 | 78 | 75 | 1.7 | 2.6 | 0.00 | 0.07 | 0.07 | 64 | 1010.2 |
| 20260508225010 | 79 | 128 | 0.9 | 2.6 | 0.00 | 0.07 | 0.07 | 65 | 1010.1 |
| 20260508224440 | 79 | 147 | 0.0 | 2.6 | 0.00 | 0.07 | 0.07 | 64 | 1010.1 |
| 20260508223940 | 79 | 47 | 1.7 | 2.6 | 0.00 | 0.07 | 0.07 | 64 | 1010.1 |
| 20260508223439 | 79 | 155 | 0.9 | 1.7 | 0.00 | 0.07 | 0.07 | 64 | 1010.2 |
| 20260508222940 | 80 | 122 | 0.0 | 2.6 | 0.00 | 0.07 | 0.07 | 63 | 1010.0 |
| 20260508222439 | 80 | 251 | 0.0 | 2.6 | 0.00 | 0.07 | 0.07 | 63 | 1010.1 |
| 20260508221939 | 81 | 311 | 0.0 | 2.6 | 0.00 | 0.07 | 0.07 | 62 | 1010.0 |
| 20260508221410 | 81 | 311 | 0.0 | 3.5 | 0.00 | 0.07 | 0.07 | 62 | 1009.9 |
| 20260508220909 | 81 | 311 | 0.0 | 3.5 | 0.00 | 0.07 | 0.07 | 62 | 1009.8 |
| 20260508220409 | 82 | 61 | 0.9 | 1.7 | 0.00 | 0.07 | 0.07 | 62 | 1009.9 |
| 20260508215909 | 82 | 286 | 0.0 | 2.6 | 0.00 | 0.07 | 0.07 | 59 | 1010.0 |
| 20260508215409 | 81 | 189 | 0.0 | 2.6 | 0.00 | 0.07 | 0.07 | 62 | 1009.8 |
| 20260508214910 | 80 | 340 | 1.7 | 3.5 | 0.00 | 0.07 | 0.07 | 63 | 1009.8 |
| 20260508214409 | 80 | 22 | 0.0 | 3.5 | 0.00 | 0.07 | 0.07 | 63 | 1010.0 |
| 20260508213838 | 80 | 125 | 1.7 | 2.6 | 0.00 | 0.07 | 0.07 | 62 | 1009.8 |
| 20260508213338 | 79 | 125 | 1.7 | 4.3 | 0.00 | 0.07 | 0.07 | 64 | 1009.8 |
| 20260508212839 | 78 | 164 | 1.7 | 4.3 | 0.00 | 0.07 | 0.07 | 65 | 1010.1 |
| 20260508211838 | 78 | 116 | 0.0 | 4.3 | 0.00 | 0.07 | 0.07 | 65 | 1010.2 |
| 20260508211337 | 79 | 133 | 2.6 | 4.3 | 0.00 | 0.07 | 0.07 | 64 | 1010.4 |
| 20260508210807 | 80 | 212 | 1.7 | 4.3 | 0.00 | 0.07 | 0.07 | 64 | 1010.9 |
| 20260508210307 | 79 | 130 | 0.9 | 2.6 | 0.00 | 0.07 | 0.07 | 64 | 1011.2 |
| 20260508205807 | 78 | 225 | 0.9 | 2.6 | 0.00 | 0.07 | 0.07 | 65 | 1011.3 |
| 20260508204307 | 78 | 336 | 0.0 | 2.6 | 0.00 | 0.07 | 0.07 | 63 | 1011.8 |
| 20260508203736 | 77 | 157 | 0.0 | 3.5 | 0.00 | 0.07 | 0.07 | 64 | 1011.8 |
| 20260508203236 | 78 | 170 | 0.9 | 3.5 | 0.00 | 0.07 | 0.07 | 62 | 1012.0 |
| 20260508202736 | 78 | 135 | 0.9 | 1.7 | 0.00 | 0.07 | 0.07 | 62 | 1012.0 |
| 20260508202236 | 79 | 76 | 0.0 | 1.7 | 0.00 | 0.07 | 0.07 | 62 | 1012.0 |
| 20260508201236 | 79 | 255 | 0.0 | 3.5 | 0.00 | 0.07 | 0.07 | 61 | 1012.0 |
| 20260508200705 | 80 | 77 | 0.0 | 2.6 | 0.00 | 0.07 | 0.07 | 59 | 1011.9 |
| 20260508200205 | 81 | 91 | 0.0 | 2.6 | 0.00 | 0.07 | 0.07 | 58 | 1012.0 |
| 20260508195705 | 82 | 226 | 0.0 | 2.6 | 0.00 | 0.07 | 0.07 | 58 | 1012.0 |
| 20260508195205 | 82 | 291 | 1.7 | 2.6 | 0.00 | 0.07 | 0.07 | 58 | 1012.3 |
| 20260508194705 | 82 | 248 | 1.7 | 2.6 | 0.00 | 0.07 | 0.07 | 59 | 1012.0 |
| 20260508194204 | 81 | 36 | 0.9 | 2.6 | 0.00 | 0.07 | 0.07 | 59 | 1012.1 |
| 20260508193634 | 80 | 117 | 0.0 | 1.7 | 0.00 | 0.07 | 0.07 | 61 | 1012.1 |
| 20260508193135 | 82 | 75 | 0.0 | 5.2 | 0.00 | 0.07 | 0.07 | 57 | 1012.2 |
| 20260508192634 | 81 | 118 | 2.6 | 5.2 | 0.00 | 0.07 | 0.07 | 59 | 1012.2 |
| 20260508192134 | 80 | 57 | 1.7 | 2.6 | 0.00 | 0.07 | 0.07 | 60 | 1012.3 |
| 20260508191634 | 82 | 268 | 0.0 | 4.3 | 0.00 | 0.07 | 0.07 | 56 | 1012.4 |
| 20260508191134 | 81 | 141 | 0.0 | 4.3 | 0.00 | 0.07 | 0.07 | 59 | 1012.4 |
| 20260508190633 | 81 | 98 | 1.7 | 3.5 | 0.00 | 0.07 | 0.07 | 57 | 1012.2 |
| 20260508190103 | 82 | 81 | 1.7 | 1.7 | 0.00 | 0.07 | 0.07 | 57 | 1012.3 |
| 20260508185603 | 82 | 154 | 0.0 | 1.7 | 0.00 | 0.07 | 0.07 | 57 | 1012.4 |
| 20260508185103 | 81 | 35 | 0.0 | 1.7 | 0.00 | 0.07 | 0.07 | 56 | 1012.4 |
| 20260508184603 | 82 | 275 | 0.9 | 1.7 | 0.00 | 0.07 | 0.07 | 55 | 1012.3 |
| 20260508183602 | 82 | 126 | 0.9 | 2.6 | 0.00 | 0.07 | 0.07 | 57 | 1012.5 |
| 20260508183032 | 81 | 336 | 0.0 | 2.6 | 0.00 | 0.07 | 0.07 | 60 | 1012.6 |
| 20260508182532 | 79 | 182 | 1.7 | 4.3 | 0.00 | 0.07 | 0.07 | 61 | 1012.8 |
| 20260508182032 | 78 | 138 | 0.9 | 4.3 | 0.00 | 0.07 | 0.07 | 59 | 1013.0 |
| 20260508181532 | 80 | 17 | 0.9 | 2.6 | 0.00 | 0.07 | 0.07 | 56 | 1012.9 |
| 20260508181032 | 80 | 280 | 0.9 | 3.5 | 0.00 | 0.07 | 0.07 | 58 | 1013.1 |
| 20260508180532 | 78 | 189 | 2.6 | 3.5 | 0.00 | 0.07 | 0.07 | 59 | 1013.4 |
| 20260508180002 | 78 | 200 | 1.7 | 3.5 | 0.00 | 0.07 | 0.07 | 60 | 1013.2 |
| 20260508175502 | 78 | 125 | 2.6 | 3.5 | 0.00 | 0.07 | 0.07 | 60 | 1013.5 |
| 20260508175001 | 79 | 179 | 1.7 | 2.6 | 0.00 | 0.07 | 0.07 | 59 | 1013.7 |
| 20260508174501 | 79 | 136 | 1.7 | 3.5 | 0.00 | 0.07 | 0.07 | 60 | 1013.5 |
| 20260508174002 | 78 | 222 | 0.0 | 5.2 | 0.00 | 0.07 | 0.07 | 62 | 1013.5 |
| 20260508173501 | 76 | 134 | 3.5 | 5.2 | 0.00 | 0.07 | 0.07 | 62 | 1013.6 |
| 20260508172930 | 76 | 102 | 0.9 | 6.1 | 0.00 | 0.07 | 0.07 | 61 | 1013.5 |
| 20260508171930 | 76 | 143 | 0.0 | 4.3 | 0.00 | 0.07 | 0.07 | 61 | 1014.0 |
| 20260508171430 | 76 | 298 | 1.7 | 3.5 | 0.00 | 0.07 | 0.07 | 61 | 1014.2 |
| 20260508170930 | 77 | 116 | 0.9 | 5.2 | 0.00 | 0.07 | 0.07 | 63 | 1014.2 |
| 20260508165859 | 75 | 191 | 3.5 | 3.5 | 0.00 | 0.07 | 0.07 | 64 | 1014.4 |
| 20260508165359 | 74 | 117 | 0.0 | 3.5 | 0.00 | 0.07 | 0.07 | 65 | 1014.6 |
| 20260508164859 | 74 | 134 | 2.6 | 3.5 | 0.00 | 0.07 | 0.07 | 64 | 1014.7 |
| 20260508163859 | 72 | 125 | 0.9 | 5.2 | 0.00 | 0.07 | 0.07 | 65 | 1014.9 |
| 20260508163359 | 73 | 147 | 0.0 | 5.2 | 0.00 | 0.07 | 0.07 | 65 | 1015.0 |
| 20260508162828 | 73 | 102 | 1.7 | 4.3 | 0.00 | 0.07 | 0.07 | 66 | 1015.1 |
| 20260508162328 | 72 | 73 | 0.0 | 5.2 | 0.00 | 0.07 | 0.07 | 67 | 1015.2 |
| 20260508161828 | 71 | 208 | 0.0 | 5.2 | 0.00 | 0.07 | 0.07 | 67 | 1015.2 |
| 20260508161328 | 72 | 131 | 0.9 | 5.2 | 0.00 | 0.07 | 0.07 | 67 | 1015.2 |
| 20260508160828 | 71 | 111 | 1.7 | 5.2 | 0.00 | 0.07 | 0.07 | 65 | 1015.4 |
| 20260508160328 | 71 | 139 | 0.9 | 5.2 | 0.00 | 0.07 | 0.07 | 66 | 1015.4 |
| 20260508155827 | 70 | 89 | 1.7 | 5.2 | 0.00 | 0.07 | 0.07 | 68 | 1015.4 |
| 20260508155327 | 71 | 104 | 1.7 | 4.3 | 0.00 | 0.07 | 0.07 | 65 | 1015.4 |
| 20260508154757 | 71 | 111 | 2.6 | 3.5 | 0.00 | 0.07 | 0.07 | 66 | 1015.7 |
| 20260508153756 | 71 | 50 | 0.9 | 3.5 | 0.00 | 0.07 | 0.07 | 69 | 1015.7 |
| 20260508153257 | 69 | 35 | 1.7 | 3.5 | 0.00 | 0.07 | 0.07 | 69 | 1015.5 |
| 20260508152757 | 69 | 114 | 1.7 | 2.6 | 0.00 | 0.07 | 0.07 | 70 | 1015.8 |
| 20260508152227 | 70 | 122 | 0.0 | 2.6 | 0.00 | 0.07 | 0.07 | 75 | 1015.7 |
| 20260508151726 | 69 | 135 | 1.7 | 2.6 | 0.00 | 0.07 | 0.07 | 73 | 1015.9 |
| 20260508151226 | 68 | 117 | 0.0 | 3.5 | 0.00 | 0.07 | 0.07 | 72 | 1016.0 |
| 20260508150727 | 69 | 131 | 0.9 | 3.5 | 0.00 | 0.07 | 0.07 | 74 | 1015.8 |
| 20260508150226 | 68 | 119 | 1.7 | 2.6 | 0.00 | 0.07 | 0.07 | 70 | 1015.8 |
| 20260508145726 | 69 | 173 | 0.0 | 4.3 | 0.00 | 0.07 | 0.07 | 76 | 1015.9 |
| 20260508145156 | 68 | 147 | 0.0 | 4.3 | 0.00 | 0.07 | 0.07 | 73 | 1015.9 |
| 20260508144655 | 68 | 161 | 2.6 | 3.5 | 0.00 | 0.07 | 0.07 | 76 | 1015.7 |
| 20260508144155 | 68 | 176 | 1.7 | 6.1 | 0.00 | 0.07 | 0.07 | 77 | 1015.7 |
| 20260508143655 | 67 | 105 | 1.7 | 6.1 | 0.00 | 0.06 | 0.06 | 76 | 1016.0 |
| 20260508143156 | 68 | 117 | 5.2 | 6.1 | 0.00 | 0.06 | 0.06 | 72 | 1015.7 |
| 20260508142124 | 69 | 103 | 0.9 | 4.3 | 0.00 | 0.06 | 0.06 | 75 | 1016.0 |
| 20260508141625 | 66 | 127 | 2.6 | 4.3 | 0.00 | 0.06 | 0.06 | 76 | 1015.7 |
| 20260508141125 | 66 | 37 | 1.7 | 3.5 | 0.00 | 0.06 | 0.06 | 80 | 1016.1 |
| 20260508140624 | 65 | 208 | 0.9 | 3.5 | 0.00 | 0.06 | 0.06 | 79 | 1016.0 |
| 20260508140123 | 65 | 157 | 0.9 | 4.3 | 0.00 | 0.06 | 0.06 | 82 | 1015.9 |
| 20260508135625 | 64 | 148 | 1.7 | 4.3 | 0.00 | 0.06 | 0.06 | 81 | 1015.8 |
| 20260508135054 | 64 | 136 | 2.6 | 4.3 | 0.00 | 0.06 | 0.06 | 81 | 1016.0 |
| 20260508134554 | 64 | 151 | 2.6 | 3.5 | 0.01 | 0.06 | 0.06 | 85 | 1016.1 |
| 20260508134054 | 64 | 149 | 1.7 | 3.5 | 0.02 | 0.06 | 0.06 | 85 | 1015.9 |
| 20260508133553 | 65 | 182 | 0.9 | 3.5 | 0.02 | 0.06 | 0.06 | 84 | 1016.0 |
| 20260508133052 | 63 | 143 | 2.6 | 2.6 | 0.02 | 0.06 | 0.06 | 88 | 1016.0 |
| 20260508131522 | 62 | 120 | 0.0 | 2.6 | 0.02 | 0.06 | 0.06 | 92 | 1015.9 |
| 20260508130022 | 62 | 139 | 1.7 | 1.7 | 0.02 | 0.06 | 0.06 | 91 | 1016.3 |
| 20260508125022 | 62 | 129 | 1.7 | 3.5 | 0.01 | 0.06 | 0.06 | 89 | 1016.4 |
| 20260508124521 | 62 | 182 | 1.7 | 3.5 | 0.00 | 0.05 | 0.05 | 90 | 1016.0 |
| 20260508123952 | 62 | 143 | 0.9 | 1.7 | 0.00 | 0.05 | 0.05 | 91 | 1016.3 |
| 20260508123451 | 62 | 50 | 0.0 | 1.7 | 0.00 | 0.05 | 0.05 | 91 | 1016.5 |
| 20260508122451 | 62 | 131 | 0.9 | 2.6 | 0.00 | 0.05 | 0.05 | 90 | 1016.1 |
| 20260508121421 | 61 | 154 | 0.9 | 3.5 | 0.00 | 0.05 | 0.05 | 92 | 1016.2 |
| 20260508120921 | 61 | 175 | 0.0 | 3.5 | 0.00 | 0.05 | 0.05 | 92 | 1016.2 |
| 20260508120420 | 61 | 106 | 2.6 | 3.5 | 0.00 | 0.05 | 0.05 | 92 | 1016.0 |
| 20260508115919 | 61 | 145 | 1.7 | 2.6 | 0.00 | 0.05 | 0.05 | 92 | 1016.3 |
| 20260508115419 | 61 | 128 | 0.9 | 3.5 | 0.00 | 0.05 | 0.05 | 93 | 1016.6 |
| 20260508113850 | 61 | 134 | 1.7 | 2.6 | 0.00 | 0.05 | 0.05 | 94 | 1016.3 |
| 20260508113350 | 61 | 125 | 1.7 | 1.7 | 0.00 | 0.05 | 0.05 | 94 | 1016.2 |
| 20260508112349 | 61 | 299 | 0.0 | 4.3 | 0.00 | 0.05 | 0.05 | 94 | 1015.9 |
| 20260508111848 | 61 | 164 | 1.7 | 4.3 | 0.00 | 0.05 | 0.05 | 94 | 1015.7 |
| 20260508111349 | 61 | 192 | 1.7 | 3.5 | 0.00 | 0.04 | 0.04 | 94 | 1015.9 |
| 20260508110818 | 61 | 171 | 0.9 | 3.5 | 0.00 | 0.04 | 0.04 | 94 | 1016.3 |
| 20260508110318 | 61 | 139 | 1.7 | 3.5 | 0.00 | 0.04 | 0.04 | 93 | 1016.5 |
| 20260508105819 | 61 | 332 | 0.0 | 1.7 | 0.00 | 0.04 | 0.04 | 93 | 1017.1 |
| 20260508105318 | 61 | 16 | 1.7 | 1.7 | 0.00 | 0.04 | 0.04 | 93 | 1016.5 |
| 20260508104818 | 61 | 134 | 0.9 | 2.6 | 0.00 | 0.04 | 0.04 | 93 | 1016.2 |
| 20260508103748 | 61 | 34 | 1.7 | 2.6 | 0.00 | 0.04 | 0.04 | 93 | 1016.8 |
| 20260508103248 | 60 | 115 | 0.0 | 1.7 | 0.00 | 0.04 | 0.04 | 94 | 1015.7 |
| 20260508102747 | 60 | 141 | 0.0 | 2.6 | 0.00 | 0.04 | 0.04 | 94 | 1015.5 |
| 20260508102247 | 60 | 141 | 0.0 | 2.6 | 0.00 | 0.04 | 0.04 | 94 | 1015.5 |
| 20260508101747 | 60 | 36 | 0.0 | 1.7 | 0.00 | 0.04 | 0.04 | 95 | 1015.7 |
| 20260508101246 | 60 | 160 | 0.0 | 1.7 | 0.00 | 0.04 | 0.04 | 95 | 1015.1 |
| 20260508100717 | 60 | 111 | 0.9 | 1.7 | 0.00 | 0.04 | 0.04 | 95 | 1015.1 |
| 20260508100217 | 61 | 114 | 0.0 | 1.7 | 0.01 | 0.04 | 0.04 | 95 | 1015.1 |
| 20260508095717 | 61 | 119 | 0.0 | 1.7 | 0.01 | 0.04 | 0.04 | 95 | 1015.3 |
| 20260508095216 | 61 | 124 | 0.0 | 1.7 | 0.02 | 0.04 | 0.04 | 95 | 1015.2 |
| 20260508094216 | 61 | 125 | 0.9 | 1.7 | 0.02 | 0.04 | 0.04 | 95 | 1015.3 |
| 20260508093145 | 61 | 154 | 0.0 | 1.7 | 0.02 | 0.04 | 0.04 | 95 | 1015.7 |
| 20260508091145 | 61 | 144 | 0.0 | 0.9 | 0.02 | 0.04 | 0.04 | 94 | 1015.5 |
| 20260508090615 | 61 | 149 | 0.0 | 1.7 | 0.03 | 0.04 | 0.04 | 93 | 1015.7 |
| 20260508090115 | 60 | 150 | 0.0 | 1.7 | 0.02 | 0.03 | 0.03 | 93 | 1015.5 |
| 20260508085614 | 60 | 133 | 0.9 | 3.5 | 0.01 | 0.03 | 0.03 | 93 | 1016.0 |
| 20260508085115 | 60 | 296 | 0.0 | 3.5 | 0.01 | 0.03 | 0.03 | 93 | 1016.0 |
| 20260508084114 | 60 | 99 | 0.9 | 5.2 | 0.02 | 0.03 | 0.03 | 93 | 1015.5 |
| 20260508083544 | 60 | 132 | 3.5 | 5.2 | 0.03 | 0.03 | 0.03 | 93 | 1015.1 |
| 20260508083044 | 60 | 166 | 2.6 | 4.3 | 0.03 | 0.03 | 0.03 | 93 | 1015.7 |
| 20260508082543 | 60 | 120 | 0.0 | 1.7 | 0.02 | 0.02 | 0.02 | 93 | 1016.1 |
| 20260508082044 | 60 | 132 | 0.9 | 1.7 | 0.02 | 0.02 | 0.02 | 92 | 1016.5 |
| 20260508081543 | 61 | 135 | 0.0 | 3.5 | 0.02 | 0.02 | 0.02 | 92 | 1016.4 |
| 20260508081043 | 61 | 124 | 0.0 | 3.5 | 0.02 | 0.02 | 0.02 | 92 | 1016.3 |
| 20260508080542 | 60 | 180 | 1.7 | 2.6 | 0.02 | 0.02 | 0.02 | 91 | 1016.5 |
| 20260508080013 | 61 | 123 | 1.7 | 1.7 | 0.02 | 0.02 | 0.02 | 90 | 1017.0 |
| 20260508075012 | 61 | 88 | 0.0 | 1.7 | 0.02 | 0.02 | 0.02 | 89 | 1017.5 |
| 20260508074512 | 61 | 173 | 0.0 | 1.7 | 0.02 | 0.02 | 0.02 | 89 | 1017.1 |
| 20260508074012 | 61 | 97 | 0.0 | 1.7 | 0.00 | 0.00 | 0.00 | 88 | 1017.0 |
| 20260508073512 | 61 | 0 | 0.0 | 0.9 | 0.00 | 0.00 | 0.00 | 87 | 1016.8 |
| 20260508072942 | 61 | 124 | 0.0 | 0.0 | 0.00 | 0.00 | 0.00 | 87 | 1016.5 |
| 20260508072441 | 60 | 157 | 0.0 | 1.7 | 0.00 | 0.00 | 0.00 | 87 | 1016.5 |
| 20260508071943 | 60 | 37 | 0.0 | 1.7 | 0.00 | 0.00 | 0.00 | 86 | 1016.8 |
| 20260508071441 | 61 | 150 | 0.0 | 0.0 | 0.00 | 0.00 | 0.00 | 86 | 1016.6 |
| 20260508070941 | 61 | 124 | 0.0 | 0.9 | 0.00 | 0.00 | 0.00 | 86 | 1016.8 |
| 20260508070440 | 61 | 6 | 0.0 | 1.7 | 0.00 | 0.00 | 0.00 | 85 | 1016.9 |